STARLINK-2636

operational
NORAD ID: 48357 Int'l Des: 2021-038 Owner: SPXS Country: US Constellation: starlink
LEOCIRCULARSTARLINK_TYPE

Über STARLINK-2636

Beschreibung wird geladen...

Live-Position

3D-Globus wird geladen...

Nächste Überflüge

Höhenverlauf

Altitude vs Time

uPlot chart will show altitude changes over time

Zweizeiliger Elementsatz

1 48357U 21038E 25251.30676368 .00002210 00000-0 16729-3 0 9998
2 48357 53.0537 100.7914 0001377 87.5398 272.5748 15.06389901239531
Epoch: 8. Sept. 2025 • Age: 12 hours

Aktueller Status

Höhe 560.3 km
Geschwindigkeit 7.58 km/s
Subsatellitenpunkt -38.05°S, 33.34°E
Startdatum 4. Mai 2021
Alter 4.3 years
Typ internet

Technische Details

Klassifizierung Payload
Masse 260.00 kg
Trockenmasse 248.00 kg
Gesamtmasse 260.00 kg
Länge 0.20 m
Durchmesser 2.80 m
Spannweite 9.00 m
Form Box + pan
Hersteller SPXS
Bus-Typ Starlink
Phasenstatus In Orbit
Besitzer/Staat SPXS/US

Große Konstellationen

Loading constellations...